Theta_e
323 323 323 322 321 321 321 323 324 323 323 323 323 322 320 318 315 315 315 316 319 320 320 320 321 322 321 323 324 332 326 323 321 319 333 331 330 333 336 341 348 350 351 347 347 348 347
324 324 324 324 323 321 321 321 321 322 324 323 323 323 323 321 317 315 316 317 318 319 319 320 321 321 322 331 331 332 330 321 320 320 326 328 330 332 334 338 346 346 348 348 348 348 348
325 325 325 325 325 324 321 322 323 322 321 322 323 323 323 323 320 316 317 318 318 318 319 321 321 322 322 329 328 330 322 318 319 323 324 325 327 330 333 333 348 347 346 344 347 347 347
323 324 325 324 323 324 325 324 324 324 324 322 321 322 323 323 323 318 318 321 323 322 321 321 321 322 324 334 331 329 324 321 323 325 324 324 326 332 333 335 345 350 347 349 348 349 347
322 322 321 321 323 323 323 325 325 324 322 323 322 321 322 322 323 321 318 323 324 324 324 324 322 332 332 331 330 328 327 324 323 323 324 325 327 329 330 329 349 347 348 346 350 342 348
321 318 319 323 324 324 324 323 324 323 321 320 322 321 322 322 322 323 317 322 323 323 323 323 323 328 331 332 331 325 324 324 324 323 324 325 326 326 327 326 335 352 348 346 349 351 350
319 322 324 323 322 322 322 322 322 321 321 321 320 321 321 322 322 323 317 319 331 329 324 325 329 327 331 331 327 326 322 322 324 324 321 324 323 327 328 328 341 344 343 345 344 343 347
322 321 320 320 320 320 321 321 321 322 322 321 319 319 319 322 322 322 318 318 328 326 326 327 329 329 330 326 324 324 323 322 322 322 322 321 323 327 329 337 338 340 343 344 345 345 348
318 317 316 316 316 316 317 317 318 318 318 319 320 320 320 321 321 322 324 317 323 324 325 326 326 330 331 326 325 325 322 322 323 322 322 320 324 328 328 329 342 341 342 345 346 348 349
316 315 315 315 315 315 316 317 316 316 317 316 316 319 321 323 321 328 327 326 325 324 324 328 328 328 331 328 326 326 323 323 323 322 321 322 325 326 326 326 333 330 339 343 342 345 348
317 316 315 314 312 311 312 313 315 316 317 317 316 316 320 318 320 323 327 327 324 324 330 332 329 329 328 328 328 327 325 324 324 324 324 323 324 325 324 325 326 326 328 335 337 335 333
317 315 313 312 311 312 312 313 313 313 314 315 317 315 319 319 320 322 325 326 324 325 331 332 330 328 327 328 328 328 326 325 325 325 323 322 325 324 323 324 324 325 324 329 335 333 332
318 315 312 312 313 313 313 314 314 314 314 314 317 317 316 318 320 325 326 325 323 326 329 332 330 328 328 328 328 326 326 324 323 324 322 324 323 322 326 323 322 323 320 323 327 330 343
318 316 314 314 313 313 314 314 314 314 314 315 318 318 318 321 319 325 325 325 325 327 325 327 330 329 329 328 329 329 326 324 323 323 323 324 325 323 324 322 321 320 318 319 329 345 343
317 316 316 314 313 314 313 313 313 314 315 315 319 318 323 327 324 325 326 327 327 327 328 329 329 331 330 329 329 328 327 325 325 323 322 324 326 327 324 325 323 322 320 319 322 341 343
317 316 316 315 314 313 313 312 312 314 314 315 319 325 326 327 325 325 327 326 327 327 327 328 328 329 329 330 329 328 328 328 328 328 324 326 326 325 326 326 324 323 323 322 320 336 345
317 316 316 315 313 313 312 311 311 313 314 315 320 328 328 326 324 325 327 328 328 328 328 329 329 329 328 329 329 330 329 330 330 329 327 326 324 325 332 325 323 322 324 327 326 329 337
317 316 315 313 313 312 311 311 311 312 314 315 323 330 327 326 326 326 326 327 328 328 328 328 328 328 328 328 328 329 332 332 332 330 328 326 323 326 331 331 326 325 324 326 328 330 331
317 316 315 313 312 311 311 311 311 312 309 312 318 325 328 326 327 327 327 328 328 328 327 328 328 328 328 328 328 328 329 331 333 331 331 327 324 324 327 331 330 326 325 327 327 325 332
316 314 313 312 311 310 310 310 311 312 310 312 321 330 329 327 328 328 329 329 329 330 330 327 326 326 326 327 327 328 328 330 330 331 329 328 326 328 326 332 335 336 335 333 334 329 334
316 313 311 311 311 310 310 310 310 312 312 314 325 328 325 329 327 326 327 328 332 331 329 329 330 327 327 326 327 327 327 327 329 331 331 328 329 331 329 335 335 334 333 332 332 334 332
314 312 311 310 310 310 309 308 309 312 313 324 323 323 322 323 325 325 324 327 327 327 327 327 329 330 329 329 328 327 327 328 331 331 332 328 329 332 331 330 333 334 334 334 335 335 333
312 311 310 310 309 309 309 308 309 311 312 316 318 319 321 322 322 323 325 325 326 326 328 328 328 329 330 328 326 328 330 329 328 329 330 333 331 333 331 330 331 337 335 335 335 335 335
311 310 310 309 309 308 308 308 309 312 312 312 317 318 321 322 322 323 324 324 325 325 327 325 326 326 326 325 325 326 328 328 328 327 328 330 337 337 337 336 337 332 333 335 334 335 334
310 309 309 309 309 309 308 307 308 310 312 312 316 317 320 321 320 321 322 323 323 324 325 325 324 324 324 325 325 327 326 328 329 328 327 327 333 334 336 337 336 334 334 334 336 336 333
309 308 308 308 309 309 309 309 308 309 310 311 314 316 317 319 321 319 321 322 323 323 324 324 324 324 325 324 325 328 328 329 330 328 327 326 327 330 333 336 338 334 334 334 332 336 334
308 308 308 308 308 307 307 308 308 309 312 312 315 315 315 317 317 318 319 320 320 321 322 323 322 323 324 326 326 325 326 327 327 327 327 328 331 330 330 334 333 335 333 334 335 333 333
308 307 307 307 306 306 306 306 307 307 309 310 311 314 316 316 315 315 317 317 317 319 323 322 322 325 327 329 329 327 328 326 326 326 328 329 332 333 329 330 331 333 333 332 332 332 333
308 307 306 306 306 306 305 305 306 306 306 308 310 312 312 314 315 315 314 312 314 315 318 319 321 321 323 325 327 326 328 331 331 334 332 337 331 336 336 336 331 332 333 334 332 332 332
Wind_Speed
19 20 20 20 20 19 20 19 19 19 18 18 18 17 16 15 13 11 8 5 4 4 5 6 6 5 3 4 10 5 7 12 12 13 14 9 19 22 9 4 14 8 15 14 13 10 23
20 20 21 21 21 20 19 19 19 19 19 18 18 18 17 16 14 11 8 5 4 4 5 6 7 7 6 6 4 8 11 11 14 14 13 10 17 21 13 6 12 13 26 14 11 12 5
20 21 21 22 21 21 20 19 19 19 19 19 18 18 18 16 14 12 8 5 4 5 6 6 8 9 9 13 5 5 7 7 11 8 9 13 16 20 17 6 17 10 8 8 7 6 2
21 21 22 23 22 22 21 20 20 20 20 19 19 18 18 17 15 12 7 5 5 7 7 7 8 11 10 8 9 10 2 7 6 8 15 16 15 10 11 6 8 1 7 4 6 10 1
22 22 22 23 23 22 21 21 20 20 21 20 19 18 17 16 15 12 8 7 8 8 8 9 8 8 11 7 16 13 12 12 11 12 11 12 11 11 17 7 4 6 3 2 5 1 9
22 22 22 23 24 23 22 21 21 21 22 21 20 19 17 16 15 13 10 10 10 10 11 11 10 10 13 16 11 9 12 13 14 11 11 16 8 4 6 3 5 6 3 5 5 11 11
21 22 23 23 22 22 21 21 21 22 22 22 21 19 18 15 15 14 9 10 7 3 12 14 9 13 14 7 8 9 10 12 13 11 7 16 4 8 15 10 10 8 4 4 5 8 3
21 22 22 23 23 22 22 22 22 22 22 21 20 20 19 15 14 12 9 9 7 19 11 18 25 30 28 12 8 12 13 11 14 7 10 7 9 15 17 9 9 12 10 12 5 3 5
20 21 22 22 23 23 23 23 23 23 22 22 22 21 19 15 12 6 7 12 11 12 11 22 30 31 24 13 12 18 16 21 10 9 9 10 13 17 16 7 11 7 11 10 7 10 10
21 22 23 23 23 24 24 23 23 22 22 23 23 21 19 16 5 6 9 13 11 11 4 7 9 18 28 14 13 18 21 16 9 11 13 10 20 15 11 10 9 7 14 11 14 14 8
21 22 22 22 22 23 23 23 23 23 23 22 22 21 16 15 11 13 7 7 8 5 4 7 12 12 15 16 8 18 21 18 12 9 5 10 11 8 8 6 6 8 7 6 5 5 0
22 22 21 22 23 23 24 24 24 24 24 24 22 20 18 13 13 4 4 10 9 1 7 5 13 11 10 15 22 16 17 12 15 10 11 9 22 5 10 9 7 6 8 8 5 5 3
22 21 21 22 23 24 25 25 26 26 25 25 22 17 20 15 7 2 1 6 1 4 7 11 13 14 13 10 11 11 10 7 5 4 8 12 12 10 5 6 7 7 4 4 5 3 2
22 22 21 22 23 25 26 27 28 28 26 27 23 17 13 11 9 6 2 2 5 9 11 7 8 16 13 12 14 12 9 7 10 10 9 7 8 12 9 9 9 8 9 5 6 3 1
22 22 22 23 25 26 27 28 29 29 27 29 23 14 8 3 5 10 7 4 5 5 8 16 19 10 9 9 10 11 11 12 12 13 9 3 11 20 11 6 8 9 6 11 3 3 4
23 22 22 23 24 25 26 27 28 29 27 26 24 18 7 6 4 8 4 6 7 12 19 16 16 6 10 11 13 11 11 15 16 17 14 8 5 5 11 10 9 7 7 2 2 3 4
22 22 22 23 24 24 25 26 28 29 26 20 15 8 10 17 9 9 4 5 11 24 22 16 15 13 13 15 14 11 17 15 16 13 13 11 5 10 2 5 8 5 5 4 3 4 5
24 23 23 23 24 24 25 25 27 30 28 19 6 3 12 10 6 8 8 7 11 22 26 15 12 8 8 15 16 15 14 6 15 10 7 9 4 4 11 7 11 9 7 7 4 8 3
24 23 22 22 23 23 23 24 24 26 27 29 16 8 12 11 3 7 13 15 21 17 14 10 9 9 8 10 9 10 14 22 11 4 1 4 4 3 7 3 5 5 9 4 4 1 3
24 22 22 22 23 22 23 22 22 22 22 22 7 4 5 15 18 9 11 11 15 20 15 7 8 10 11 12 8 9 13 15 20 5 10 2 3 6 6 6 3 1 5 6 4 3 2
23 22 21 22 22 22 22 21 21 19 17 16 3 4 15 5 9 16 16 14 13 13 20 22 9 6 9 8 10 10 12 12 15 11 6 7 3 4 7 6 4 4 8 13 7 15 1
21 20 20 20 20 20 20 20 21 19 14 11 10 10 18 20 17 13 12 11 14 14 13 15 11 12 6 7 8 10 11 7 5 9 9 2 4 4 6 7 8 6 1 8 11 12 16
18 17 17 18 18 18 18 18 18 19 15 6 11 19 11 11 11 11 10 13 19 21 8 12 13 10 10 13 23 22 19 17 9 6 7 5 1 0 6 7 4 1 11 11 7 6 2
16 16 17 17 17 18 17 16 15 15 14 13 10 15 8 6 9 11 19 21 17 19 7 13 17 9 17 31 26 25 18 19 13 11 9 5 5 3 3 5 9 5 9 12 10 10 10
16 15 15 16 16 17 16 15 15 13 11 10 10 11 9 6 14 16 18 18 24 22 14 11 15 22 21 23 5 6 7 7 6 9 9 6 2 3 2 4 4 3 5 3 5 7 15
14 14 15 16 16 16 16 15 14 13 11 9 4 8 9 9 6 19 22 19 11 11 9 14 27 20 18 4 4 4 4 7 4 5 4 9 6 3 1 3 5 6 6 20 7 3 11
14 15 15 16 16 17 16 16 14 12 11 9 5 9 10 10 21 16 14 14 20 17 8 15 19 13 18 2 5 6 7 6 9 10 8 7 5 11 10 7 7 3 12 13 9 7 5
15 15 15 16 16 16 15 15 14 13 12 13 8 7 10 8 27 25 13 18 22 18 6 18 10 8 5 4 3 3 4 6 8 9 7 6 5 7 7 9 9 11 8 8 8 13 14
14 16 16 17 17 16 15 15 14 13 12 13 11 8 15 15 22 29 33 30 28 31 24 12 15 19 4 3 4 4 3 4 6 3 7 3 2 2 5 3 14 25 14 11 32 27 20
Wind_Direction
13 11 10 10 9 9 10 10 8 8 8 8 5 4 2 359 351 343 335 325 317 324 330 338 348 348 304 267 259 263 278 234 233 221 214 250 273 277 292 60 97 109 104 113 115 117 131
2 1 0 360 359 359 0 1 360 359 359 0 359 359 357 356 351 343 333 318 297 300 310 320 327 329 290 252 220 285 277 228 213 214 213 251 269 285 307 16 55 95 79 116 128 124 146
353 352 352 352 352 350 351 353 353 352 351 351 352 351 351 351 349 342 329 313 286 283 290 300 310 316 284 246 237 312 282 206 202 204 239 251 276 294 319 351 73 45 82 69 31 136 125
344 345 346 346 345 344 343 344 345 345 343 343 345 344 344 344 343 337 320 299 285 281 276 282 295 309 269 308 216 260 274 237 218 217 249 274 301 299 288 288 51 183 56 44 42 310 161
341 340 341 341 342 341 337 337 338 338 337 336 338 337 337 336 336 329 304 281 280 280 268 268 283 301 271 227 217 230 224 223 227 237 249 272 307 295 283 268 76 3 198 254 106 263 282
337 337 338 338 338 338 337 333 333 333 333 332 330 332 330 329 329 325 298 275 277 276 264 268 249 295 243 237 226 202 212 219 223 228 251 249 263 235 263 249 216 184 197 212 156 205 231
342 341 339 340 342 341 339 337 333 332 331 330 329 326 326 323 321 320 293 280 302 205 230 224 227 222 280 179 143 181 205 205 220 219 233 246 216 244 252 245 145 158 115 132 279 225 182
344 345 344 343 343 342 340 337 336 333 331 330 328 324 323 320 312 309 288 251 273 324 297 271 263 253 269 182 171 209 188 196 226 208 226 271 228 246 264 199 147 155 157 194 245 256 187
347 346 346 345 345 344 342 341 338 336 333 332 329 325 322 320 307 300 307 270 315 327 288 283 247 234 245 183 217 189 182 217 180 218 226 218 246 235 252 264 145 193 187 196 181 208 219
349 348 347 346 345 344 342 339 335 333 331 330 329 324 324 323 289 259 280 347 329 307 296 262 187 232 228 195 227 213 185 201 232 209 225 223 248 253 253 251 179 231 220 210 281 146 205
348 347 347 347 347 347 345 343 339 333 328 325 324 321 318 317 293 276 311 2 323 305 296 165 155 176 193 179 226 209 184 201 252 261 207 250 254 260 286 274 284 251 308 223 237 292 33
348 348 349 348 347 346 344 343 340 336 332 326 321 318 308 303 282 310 302 341 316 277 248 184 147 157 163 201 241 162 168 194 241 262 283 241 274 269 224 262 228 270 295 290 206 230 308
349 350 350 350 347 346 345 343 339 336 333 327 321 314 297 281 254 336 265 282 209 235 308 145 168 160 185 189 235 168 177 177 211 244 260 272 240 259 209 246 271 203 302 312 320 346 224
349 349 349 349 349 347 346 343 339 336 334 326 326 316 291 280 227 201 349 302 243 253 241 293 177 174 185 200 210 214 169 199 211 236 275 264 274 221 220 200 198 208 188 174 225 157 190
347 347 349 350 348 347 346 344 341 338 338 328 331 327 281 80 212 167 246 222 219 235 282 350 337 202 193 195 209 212 185 196 213 199 206 260 283 277 182 185 189 262 200 216 186 23 89
348 347 347 347 347 347 347 346 343 341 344 336 335 332 273 168 131 151 229 250 261 281 319 324 311 316 331 204 202 222 207 209 218 215 198 236 288 207 192 179 224 191 230 288 285 145 198
345 345 345 346 347 348 348 347 346 342 347 346 338 327 114 157 177 199 225 243 266 268 270 289 299 314 311 317 317 245 226 228 212 226 186 219 172 287 353 193 192 269 280 276 167 171 152
343 343 344 345 346 347 349 349 349 346 347 354 19 278 181 174 183 217 228 243 250 274 284 285 297 236 295 304 307 314 324 228 246 220 202 189 162 233 230 255 192 204 233 208 149 286 246
339 339 340 342 344 345 347 348 350 350 348 349 337 272 218 187 243 242 263 274 255 254 267 286 314 312 310 273 296 307 311 314 313 55 352 202 212 250 315 294 301 209 244 245 231 180 244
338 338 340 343 344 345 345 347 348 347 339 344 327 297 255 201 238 262 287 282 293 306 310 233 271 311 312 309 293 285 298 300 310 241 180 99 224 176 201 211 169 332 339 340 21 315 170
337 338 340 342 343 344 343 345 346 345 336 337 283 332 10 315 338 330 318 318 321 323 323 323 299 215 271 290 308 306 313 311 303 308 209 139 242 291 288 137 166 229 275 277 343 304 255
337 338 339 340 341 341 343 345 345 349 348 18 340 2 336 302 309 320 305 290 281 283 280 290 292 315 289 248 255 278 302 313 301 348 332 290 247 265 281 285 210 195 285 310 308 313 350
334 335 335 337 338 339 341 343 344 349 358 6 347 342 333 297 305 304 293 300 312 315 332 317 347 340 329 20 347 327 322 317 316 325 316 322 19 359 250 268 282 357 189 204 229 298 190
329 332 335 337 338 340 342 343 346 352 0 353 353 339 303 292 307 299 312 309 314 330 333 321 327 328 314 322 333 330 325 318 318 304 296 312 336 137 205 322 269 235 174 169 207 283 323
329 330 332 334 336 337 338 340 339 341 338 353 15 353 322 303 312 305 333 332 327 323 323 318 303 300 296 293 310 311 315 299 261 255 289 306 343 331 197 238 277 3 179 122 132 255 269
324 326 329 331 333 333 333 332 331 339 332 334 346 347 324 303 208 347 322 314 320 338 324 322 349 325 315 244 266 230 245 294 275 297 262 271 261 180 279 181 242 191 162 142 138 217 296
320 325 327 330 331 332 332 330 326 325 333 338 22 340 329 282 281 318 316 317 314 319 304 314 355 327 322 310 248 245 251 261 257 261 275 279 261 243 257 244 245 175 141 154 151 224 339
320 324 325 326 326 327 326 325 323 315 313 321 301 342 316 275 287 290 303 317 316 309 301 330 337 9 343 357 319 300 272 257 268 264 253 251 268 242 230 247 261 164 149 158 177 124 78
319 321 322 322 322 323 324 323 321 317 309 306 312 284 303 288 274 282 287 282 271 262 268 277 292 306 303 353 13 340 338 308 331 291 9 89 14 267 27 330 332 333 220 181 158 145 135